User: anonymous   Login
Location: Red Shale Campground
(45.5700°N, 106.1600°W)
Time: 04:53:53
(UTC-07:00)
Language:

FENGYUN 3A - Orbit

View from above orbital plane
View from above orbital plane
View from above satellite
View from above satellite

Ground track
Ground track

The orbit data is extracted from the following two-line orbital elements,

1 32958U 08026A   16343.21422982  .00000026  00000-0  31900-4 0  9995
2 32958  98.4314  15.2233 0010511 111.4559 248.7742 14.19642032442240
Epoch (UTC): 08 December 2016 05:08:29
Eccentricity: 0.0010511
inclination: 98.4314°
perigee height: 819 km
apogee height: 834 km
right ascension of ascending node: 15.2233°
argument of perigee: 111.4559°
revolutions per day: 14.19642032
mean anomaly at epoch: 248.7742°
orbit number at epoch: 44224

The dashed part of the orbit path shows where the satellite is in the earth's shadow,  

DLR